Flag for Germany Weather past 2 weeks in Schönebeck, Saxony-Anhalt, Germany

Now
35 °F

Scattered clouds.


Feels Like: 30 °F
Forecast: 31 / 37 °F
Wind: 7 mph from Southwest

Location: Magdeburg

Current Time: Jan 29, 2015 at 9:28:44 AM

Latest Report: Jan 29, 2015 at 9:00 AM


Visibility: 38 mi

Pressure: 29.26 "Hg

Humidity: 71%

Dew point: 27 °F

Location of SchönebeckLocation

Historic Weather in Schönebeck — Graph

°F

Schönebeck temperature yesterday

Maximum temperature yesterday: 42 °F (at 2:00 PM)
Minimum temperature yesterday: 35 °F (at 8:00 AM)
Average temperature yesterday: 39 °F

Past Weeks' High & Low Weather Summary

 TemperatureHumidityPressure
High49 °F (Jan 16, 1:00 AM)98% (Jan 20, 9:00 AM)30.34 "Hg (Jan 20, 9:00 AM)
Low24 °F (Jan 19, 7:00 AM)61% (Jan 14, 2:00 PM)29.26 "Hg (Jan 29, 7:00 AM)
Average35 °F86%29.96 "Hg
* Reported Jan 14 8:00 AM — Jan 29 8:00 AM, Schönebeck, Weather by CustomWeather, © 2014

Note: Actual official high and low records may vary slightly from our data, if they occured in-between our weather recording intervals... More about our weather records

Advertising

Schönebeck weather history for previous 24 hours

 ConditionsComfort  
Time TempWeatherWind HumidityBarometerVisibility
8:00 AM
Jan 29
34 °FSunny.3 mph79%29.26 "Hg37 mi
7:00 AM36 °FClear.5 mph69%29.26 "Hg31 mi
6:00 AM36 °FPassing clouds.6 mph70%29.29 "Hg28 mi
5:00 AM36 °FPassing clouds.6 mph75%29.29 "Hg25 mi
4:00 AM36 °FPassing clouds.7 mph79%29.29 "Hg22 mi
3:00 AM37 °FPassing clouds.6 mph74%29.32 "Hg25 mi
2:00 AM36 °FPassing clouds.6 mph81%29.29 "Hg31 mi
1:00 AM36 °FClear.6 mph85%29.32 "Hg43 mi
12:00 AM38 °FPassing clouds.7 mph76%29.32 "Hg43 mi
11:00 PM
Jan 28
39 °FOvercast.7 mph79%29.32 "Hg43 mi
10:00 PM40 °FLight rain. Overcast.6 mph81%29.29 "Hg7 mi
9:00 PM40 °FLight rain. Overcast.7 mph82%29.29 "Hg25 mi
8:00 PM40 °FLight rain. Overcast.8 mph82%29.35 "Hg7 mi
6:00 PM41 °FOvercast.7 mph73%29.44 "Hg16 mi
5:00 PM41 °FOvercast.7 mph73%29.50 "Hg16 mi
3:00 PM42 °FOvercast.7 mph75%29.63 "Hg12 mi
2:00 PM42 °FOvercast.7 mph75%29.69 "Hg14 mi
1:00 PM42 °FOvercast.7 mph74%29.75 "Hg16 mi
12:00 PM41 °FOvercast.7 mph73%29.81 "Hg19 mi
11:00 AM40 °FOvercast.6 mph77%29.86 "Hg16 mi
9:00 AM37 °FOvercast.3 mph84%29.93 "Hg25 mi
Weather by CustomWeather, © 2014

See weather overviewHow to use our weather pages